Regional Weather Roundup
Issued by NWS

Home | Current Version | Previous Version | Graphics & Text | Print | Product List | Glossary On
Versions: 1 2 3 4 5 6 7 8 9 10 11 12 13 14 15 16 17 18 19 20 21 22 23 24 25 26 27 28 29 30 31 32 33 34 35 36 37 38 39 40 41 42 43 44 45 46 47 48 49 50
000
ASUS43 KFSD 181002
RWRSD

WEATHER ROUNDUP FOR SOUTH DAKOTA
NATIONAL WEATHER SERVICE SIOUX FALLS SD
400 AM CST THU JAN 18 2018

NOTE: "FAIR" INDICATES FEW OR NO CLOUDS BELOW 12,000 FEET WITH NO
SIGNIFICANT WEATHER AND/OR OBSTRUCTIONS TO VISIBILITY.


SDZ001>005-009-010-012>017-181100-
NORTHWEST AND NORTH CENTRAL SOUTH DAKOTA

CITY           SKY/WX    TMP DP  RH WIND       PRES   REMARKS
BUFFALO          N/A     36  22  56 W21       29.83F
FAITH            N/A     28  19  69 SW8       29.92F WCI  20
MOBRIDGE       PTCLDY    23  18  81 SE6       29.89F WCI  16
$$

SDZ012>016-024>037-041>051-057-063-072>074-181100-
SOUTHWEST AND SOUTH CENTRAL SOUTH DAKOTA

CITY           SKY/WX    TMP DP  RH WIND       PRES   REMARKS
RAPID CTY ARPT FAIR      31  16  54 CALM      29.95F
PIERRE         CLOUDY    21  18  88 SW6       29.95F WCI  13
CUSTER         PTCLDY    34  13  41 NW6       29.99S WCI  29
ELLSWORTH AFB  MOCLDY    27  18  68 W8        29.93F WCI  19
PHILIP         PTCLDY    25  21  85 W10       29.95F WCI  15
PINE RIDGE     PTCLDY    23  18  81 SW8       30.02F WCI  14
SPEARFISH        N/A     41  16  36 CALM      29.96S
WINNER         FAIR      32  22  66 SW16      29.98F WCI  21
$$

SDZ004>011-016>023-039-040-181100-
NORTHEAST SOUTH DAKOTA

CITY           SKY/WX    TMP DP  RH WIND       PRES   REMARKS
ABERDEEN       PTCLDY    20  18  92 S6        29.94F WCI  12
WATERTOWN      CLOUDY    19  17  92 S5        29.95F WCI  12
BROOKINGS      CLOUDY    17  14  88 CALM      30.00F
SISSETON         N/A     37  23  56 SW17G24   29.84F
$$

SDZ017-020-022-023-036>040-048>070-181100-
SOUTHEAST SOUTH DAKOTA

CITY           SKY/WX    TMP DP  RH WIND       PRES   REMARKS
SIOUX FALLS    CLOUDY    16  14  92 SW3       30.03F
HURON          MOCLDY    19  16  88 S5        29.98F WCI  12
CHAMBERLAIN    PTCLDY    30  24  77 SW5       30.00S WCI  25
MITCHELL       PTCLDY    17  14  88 E8        30.01F WCI   7
YANKTON        CLOUDY    19  15  84 SE5       30.05F WCI  12
$$

ABBREVIATIONS USED IN REMARKS
   TC - TEMPERATURE IN CELSIUS
  WCI - WIND CHILL INDEX
   HX - HEAT INDEX
  VSB - VISIBILITY





USA.gov is the U.S. government's official web portal to all federal, state and local government web resources and services.